K7SKM Weather Reports


Display with metric or nautical units.
time (UTC)temp
F
wind
direction
speed
MPH
gust
MPH
rain 1hr
in
rain 24hr
in
rain mn
in
humidity
%
barometer
mb
20260508014308 64 249 0.0 0.0 0.00 0.00 0.00 51 1021.7
20260508013803 64 226 0.0 0.0 0.00 0.00 0.00 51 1021.8
20260508013300 64 222 0.0 0.0 0.00 0.00 0.00 50 1021.6
20260508012757 65 255 0.0 0.0 0.00 0.00 0.00 50 1021.6
20260508012255 65 297 0.0 0.0 0.00 0.00 0.00 49 1021.7
20260508011753 65 269 0.0 5.0 0.00 0.00 0.00 50 1021.7
20260508011250 66 256 0.0 5.0 0.00 0.00 0.00 49 1021.7
20260508010747 65 237 0.0 0.0 0.00 0.00 0.00 49 1021.8
20260508010244 66 279 1.0 7.0 0.00 0.00 0.00 48 1021.9
20260508005741 66 263 0.0 0.0 0.00 0.00 0.00 49 1021.9
20260508005238 67 278 2.0 5.0 0.00 0.00 0.00 47 1022.2
20260508004733 67 228 0.0 0.0 0.00 0.00 0.00 48 1022.0
20260508004230 67 194 0.0 3.0 0.00 0.00 0.00 48 1022.0
20260508003727 67 283 1.0 7.0 0.00 0.00 0.00 47 1022.1
20260508003224 66 216 0.0 0.0 0.00 0.00 0.00 48 1022.1
20260508002721 67 229 0.0 0.0 0.00 0.00 0.00 48 1022.2
20260508002218 68 226 0.0 0.0 0.00 0.00 0.00 47 1022.2
20260508001714 67 236 0.0 3.0 0.00 0.00 0.00 48 1022.3
20260508001209 68 241 0.0 0.0 0.00 0.00 0.00 47 1022.3
20260508000706 68 281 1.0 5.0 0.00 0.00 0.00 46 1022.2
20260508000204 69 284 1.0 7.0 0.00 0.00 0.00 45 1022.1
20260507235659 69 235 0.0 0.0 0.00 0.00 0.00 44 1022.3
20260507235157 68 273 0.0 0.0 0.00 0.00 0.00 46 1022.2
20260507234654 69 206 0.0 0.0 0.00 0.00 0.00 45 1022.4
20260507234150 68 265 0.0 3.0 0.00 0.00 0.00 46 1022.2
20260507233647 69 189 0.0 0.0 0.00 0.00 0.00 44 1022.2
20260507233145 68 67 0.0 0.0 0.00 0.00 0.00 46 1022.2
20260507232642 69 264 1.0 5.0 0.00 0.00 0.00 44 1022.4
20260507232139 67 263 3.0 5.0 0.00 0.00 0.00 46 1022.5
20260507231635 69 237 0.0 0.0 0.00 0.00 0.00 45 1022.3
20260507231133 68 242 0.0 0.0 0.00 0.00 0.00 47 1022.5
20260507230629 66 226 0.0 0.0 0.00 0.00 0.00 48 1022.5
20260507230126 67 84 0.0 0.0 0.00 0.00 0.00 46 1022.6
20260507225620 68 343 0.0 0.0 0.00 0.00 0.00 45 1022.6
20260507225117 70 193 0.0 0.0 0.00 0.00 0.00 45 1022.7
20260507224613 68 122 0.0 0.0 0.00 0.00 0.00 45 1022.7
20260507224110 67 186 0.0 0.0 0.00 0.00 0.00 47 1022.7
20260507223606 66 281 0.0 0.0 0.00 0.00 0.00 48 1022.9
20260507223103 66 321 1.0 7.0 0.00 0.00 0.00 48 1022.8
20260507222600 67 276 5.0 10.0 0.00 0.00 0.00 46 1023.0
20260507222056 67 250 0.0 0.0 0.00 0.00 0.00 46 1023.0
20260507221552 67 218 0.0 5.0 0.00 0.00 0.00 48 1023.1
20260507221049 69 251 2.0 3.0 0.00 0.00 0.00 46 1023.0
20260507220547 67 97 2.0 7.0 0.00 0.00 0.00 45 1023.1
20260507220044 66 187 0.0 0.0 0.00 0.00 0.00 47 1023.1
20260507215540 66 106 0.0 0.0 0.00 0.00 0.00 47 1023.3
20260507215038 65 219 0.0 3.0 0.00 0.00 0.00 50 1023.3
20260507214535 67 254 0.0 0.0 0.00 0.00 0.00 46 1023.2
20260507214031 68 290 0.0 3.0 0.00 0.00 0.00 47 1023.3
20260507213527 67 260 0.0 0.0 0.00 0.00 0.00 50 1023.3
20260507213025 66 81 0.0 0.0 0.00 0.00 0.00 48 1023.5
20260507212520 69 209 0.0 0.0 0.00 0.00 0.00 49 1023.4
20260507212017 66 290 0.0 0.0 0.00 0.00 0.00 50 1023.5
20260507211514 66 116 0.0 0.0 0.00 0.00 0.00 49 1023.8
20260507211010 64 286 6.0 7.0 0.00 0.00 0.00 53 1023.9
20260507210508 64 220 0.0 0.0 0.00 0.00 0.00 53 1023.8
20260507210005 63 295 3.0 5.0 0.00 0.00 0.00 54 1023.8
20260507205501 64 229 0.0 0.0 0.00 0.00 0.00 53 1023.8
20260507204957 65 285 0.0 0.0 0.00 0.00 0.00 52 1023.9
20260507204453 64 174 0.0 0.0 0.00 0.00 0.00 52 1024.0
20260507203951 64 273 0.0 0.0 0.00 0.00 0.00 52 1024.0
20260507203449 65 240 0.0 0.0 0.00 0.00 0.00 51 1024.2
20260507202945 63 117 0.0 0.0 0.00 0.00 0.00 53 1024.2
20260507202442 62 244 0.0 3.0 0.00 0.00 0.00 54 1024.3
20260507201938 64 228 0.0 0.0 0.00 0.00 0.00 52 1024.3
20260507201433 64 337 0.0 0.0 0.00 0.00 0.00 50 1024.3
20260507200930 66 7 0.0 0.0 0.00 0.00 0.00 49 1024.3
20260507200425 66 184 0.0 0.0 0.00 0.00 0.00 50 1024.3
20260507195922 65 211 0.0 5.0 0.00 0.00 0.00 53 1024.4
20260507195420 65 78 0.0 0.0 0.00 0.00 0.00 51 1024.5
20260507194917 64 228 0.0 0.0 0.00 0.00 0.00 55 1024.5
20260507194413 62 211 0.0 7.0 0.00 0.00 0.00 56 1024.5
20260507193909 61 144 0.0 0.0 0.00 0.00 0.00 56 1024.9
20260507193406 61 258 0.0 3.0 0.00 0.00 0.00 56 1024.7
20260507192903 62 86 0.0 3.0 0.00 0.00 0.00 57 1024.7
20260507192359 62 88 0.0 0.0 0.00 0.00 0.00 56 1024.7
20260507191856 63 105 0.0 0.0 0.00 0.00 0.00 56 1024.7
20260507191352 61 234 0.0 0.0 0.00 0.00 0.00 59 1024.8
20260507190849 59 214 0.0 0.0 0.00 0.00 0.00 61 1024.8
20260507190347 59 219 0.0 3.0 0.00 0.00 0.00 62 1024.9
20260507185845 61 222 0.0 0.0 0.00 0.00 0.00 60 1024.9
20260507185342 60 281 0.0 3.0 0.00 0.00 0.00 59 1024.7
20260507184839 59 276 1.0 3.0 0.00 0.00 0.00 62 1024.8
20260507184337 60 162 0.0 0.0 0.00 0.00 0.00 60 1024.8
20260507183833 59 234 4.0 7.0 0.00 0.00 0.00 61 1025.1
20260507183331 59 290 1.0 5.0 0.00 0.00 0.00 63 1025.3
20260507182828 59 250 0.0 3.0 0.00 0.00 0.00 62 1024.9
20260507182324 59 272 0.0 0.0 0.00 0.00 0.00 62 1025.0
20260507181820 58 229 0.0 3.0 0.00 0.00 0.00 62 1024.9
20260507181316 59 230 0.0 3.0 0.00 0.00 0.00 61 1025.1
20260507180813 59 139 0.0 0.0 0.00 0.00 0.00 62 1025.1
20260507180310 59 273 4.0 5.0 0.00 0.00 0.00 60 1025.2
20260507175805 61 236 0.0 0.0 0.00 0.00 0.00 60 1025.1
20260507175306 59 269 0.0 7.0 0.00 0.00 0.00 62 1025.2
20260507174800 61 304 0.0 0.0 0.00 0.00 0.00 59 1025.1
20260507174258 61 177 0.0 0.0 0.00 0.00 0.00 59 1025.4
20260507173755 61 172 0.0 3.0 0.00 0.00 0.00 60 1025.4
20260507173252 62 259 2.0 5.0 0.00 0.00 0.00 58 1025.2
20260507172748 61 339 0.0 3.0 0.00 0.00 0.00 59 1025.3
20260507172245 62 122 0.0 3.0 0.00 0.00 0.00 58 1025.3
20260507171741 61 243 0.0 0.0 0.00 0.00 0.00 59 1025.2
20260507171238 60 226 0.0 0.0 0.00 0.00 0.00 63 1025.2
20260507170735 58 239 0.0 3.0 0.00 0.00 0.00 64 1025.3
20260507170232 57 211 0.0 5.0 0.00 0.00 0.00 66 1025.1
20260507165727 58 270 0.0 0.0 0.00 0.00 0.00 65 1025.2
20260507165224 57 236 0.0 0.0 0.00 0.00 0.00 65 1025.2
20260507164720 56 262 0.0 0.0 0.00 0.00 0.00 67 1025.4
20260507164217 55 238 0.0 0.0 0.00 0.00 0.00 68 1025.2
20260507163714 56 266 0.0 0.0 0.00 0.00 0.00 66 1025.3
20260507163212 57 244 0.0 0.0 0.00 0.00 0.00 64 1025.4
20260507162708 57 217 0.0 0.0 0.00 0.00 0.00 64 1025.2
20260507162204 57 229 0.0 0.0 0.00 0.00 0.00 64 1025.3
20260507161701 57 175 0.0 0.0 0.00 0.00 0.00 65 1025.2
20260507161157 57 219 0.0 0.0 0.00 0.00 0.00 65 1025.3
20260507160653 57 279 2.0 7.0 0.00 0.00 0.00 65 1025.4
20260507160150 57 277 0.0 0.0 0.00 0.00 0.00 66 1025.3
20260507155646 56 298 3.0 5.0 0.00 0.00 0.00 66 1025.2
20260507155143 56 168 0.0 0.0 0.00 0.00 0.00 66 1025.4
20260507154639 57 279 0.0 0.0 0.00 0.00 0.00 66 1025.3
20260507154137 56 214 0.0 0.0 0.00 0.00 0.00 68 1025.3
20260507153633 55 216 0.0 3.0 0.00 0.00 0.00 68 1025.4
20260507153129 55 218 0.0 0.0 0.00 0.00 0.00 70 1025.2
20260507152626 55 196 0.0 0.0 0.00 0.00 0.00 69 1025.5
20260507152122 54 186 0.0 0.0 0.00 0.00 0.00 70 1025.4
20260507151618 55 140 0.0 3.0 0.00 0.00 0.00 69 1025.5
20260507151115 55 144 0.0 3.0 0.00 0.00 0.00 68 1025.6
20260507150612 56 200 0.0 0.0 0.00 0.00 0.00 67 1025.4
20260507150109 56 209 0.0 0.0 0.00 0.00 0.00 67 1025.6
20260507145604 56 178 0.0 3.0 0.00 0.00 0.00 66 1025.5
20260507145102 56 205 0.0 5.0 0.00 0.00 0.00 66 1025.6
20260507144558 56 204 0.0 3.0 0.00 0.00 0.00 65 1025.6
20260507144056 56 205 0.0 5.0 0.00 0.00 0.00 66 1025.6
20260507143552 55 165 1.0 5.0 0.00 0.00 0.00 66 1025.5
20260507143050 56 207 3.0 7.0 0.00 0.00 0.00 65 1025.4
20260507142550 55 188 0.0 0.0 0.00 0.00 0.00 67 1025.4
20260507142047 53 186 0.0 0.0 0.00 0.00 0.00 70 1025.7
20260507141543 53 186 0.0 0.0 0.00 0.00 0.00 71 1025.6
20260507141040 52 104 0.0 0.0 0.00 0.00 0.00 71 1025.6
20260507140537 52 165 0.0 0.0 0.00 0.00 0.00 72 1025.5
20260507140035 52 162 0.0 0.0 0.00 0.00 0.00 72 1025.7
20260507135531 51 200 0.0 0.0 0.00 0.00 0.00 73 1025.5
20260507135029 51 196 0.0 0.0 0.00 0.00 0.00 73 1025.4
20260507134525 51 151 0.0 0.0 0.00 0.00 0.00 74 1025.3
20260507134021 51 194 0.0 5.0 0.00 0.00 0.00 74 1025.4
20260507133517 51 126 0.0 0.0 0.00 0.00 0.00 75 1025.5
20260507133016 51 162 0.0 0.0 0.00 0.00 0.00 75 1025.5
20260507132512 51 140 0.0 0.0 0.00 0.00 0.00 75 1025.4
20260507132008 51 138 0.0 0.0 0.00 0.00 0.00 75 1025.4
20260507131505 50 149 0.0 0.0 0.00 0.00 0.00 76 1025.4
20260507131002 50 171 0.0 0.0 0.00 0.00 0.00 76 1025.4
20260507130459 50 165 0.0 0.0 0.00 0.00 0.00 78 1025.3
20260507125957 50 186 0.0 0.0 0.00 0.00 0.00 79 1025.1
20260507125455 50 184 0.0 0.0 0.00 0.00 0.00 79 1025.4
20260507124952 50 168 0.0 0.0 0.00 0.00 0.00 79 1025.4
20260507124448 50 157 0.0 0.0 0.00 0.00 0.00 79 1025.3
20260507123947 50 168 0.0 0.0 0.00 0.00 0.00 79 1025.3
20260507123444 50 180 0.0 0.0 0.00 0.00 0.00 78 1025.4
20260507122940 50 180 0.0 0.0 0.00 0.00 0.00 78 1025.2
20260507122436 50 163 0.0 0.0 0.00 0.00 0.00 77 1025.6
20260507121932 50 160 0.0 0.0 0.00 0.00 0.00 75 1025.3
20260507121427 51 184 0.0 0.0 0.00 0.00 0.00 75 1025.4
20260507120924 51 181 0.0 0.0 0.00 0.00 0.00 74 1025.5
20260507120421 51 163 0.0 0.0 0.00 0.00 0.00 75 1025.6
20260507115917 51 165 0.0 0.0 0.00 0.00 0.00 76 1025.4
20260507115413 51 166 0.0 3.0 0.00 0.00 0.00 76 1025.4
20260507114909 51 181 0.0 0.0 0.00 0.00 0.00 77 1025.6
20260507114406 51 168 0.0 0.0 0.00 0.00 0.00 78 1025.6
20260507113903 51 178 0.0 0.0 0.00 0.00 0.00 77 1025.7
20260507113400 51 163 0.0 0.0 0.00 0.00 0.00 77 1025.7
20260507112857 50 182 0.0 0.0 0.00 0.00 0.00 77 1025.8
20260507112355 50 184 0.0 0.0 0.00 0.00 0.00 77 1025.7
20260507111852 50 188 0.0 0.0 0.00 0.00 0.00 78 1025.5
20260507111349 50 190 0.0 0.0 0.00 0.00 0.00 79 1025.5
20260507110845 50 171 0.0 0.0 0.00 0.00 0.00 80 1025.5
20260507110341 50 154 0.0 0.0 0.00 0.00 0.00 80 1025.7
20260507105838 50 163 0.0 0.0 0.00 0.00 0.00 81 1025.6
20260507105335 50 178 0.0 0.0 0.00 0.00 0.00 81 1025.6
20260507104832 50 179 0.0 0.0 0.00 0.00 0.00 82 1025.5
20260507104328 50 179 0.0 0.0 0.00 0.00 0.00 81 1025.5
20260507103824 50 179 0.0 0.0 0.00 0.00 0.00 81 1025.7
20260507103321 50 171 0.0 0.0 0.00 0.00 0.00 81 1025.7
20260507102817 50 158 0.0 0.0 0.00 0.00 0.00 81 1025.6
20260507102314 50 181 0.0 0.0 0.00 0.00 0.00 80 1025.9
20260507101810 50 184 0.0 0.0 0.00 0.00 0.00 80 1025.7
20260507101305 50 169 0.0 0.0 0.00 0.00 0.00 80 1025.8
20260507100803 51 156 0.0 0.0 0.00 0.00 0.00 80 1025.8
20260507100301 51 150 0.0 0.0 0.00 0.00 0.00 80 1025.7
20260507095758 51 146 0.0 0.0 0.00 0.00 0.00 79 1025.6
20260507095254 51 125 0.0 0.0 0.00 0.00 0.00 79 1025.7
20260507094752 51 167 0.0 0.0 0.00 0.00 0.00 78 1025.7
20260507094249 51 162 0.0 0.0 0.00 0.00 0.00 77 1025.5
20260507093745 51 167 0.0 0.0 0.00 0.00 0.00 77 1025.6
20260507093244 51 172 0.0 0.0 0.00 0.00 0.00 76 1025.6
20260507092741 52 154 0.0 0.0 0.00 0.00 0.00 76 1025.6
20260507092237 52 177 0.0 0.0 0.00 0.00 0.00 75 1025.7
20260507091734 52 136 0.0 0.0 0.00 0.00 0.00 76 1025.7
20260507091230 52 191 0.0 3.0 0.00 0.00 0.00 76 1025.8
20260507090726 52 208 0.0 0.0 0.00 0.00 0.00 76 1025.7
20260507090222 52 198 0.0 0.0 0.00 0.00 0.00 77 1025.7
20260507085720 52 168 0.0 0.0 0.00 0.00 0.00 77 1025.6
20260507085217 52 193 0.0 0.0 0.00 0.00 0.00 77 1025.5
20260507084714 52 197 0.0 0.0 0.00 0.00 0.00 77 1025.6
20260507084210 52 187 0.0 3.0 0.00 0.00 0.00 77 1025.7
20260507083708 52 191 0.0 0.0 0.00 0.00 0.00 77 1025.7
20260507083204 53 163 0.0 0.0 0.00 0.00 0.00 78 1025.7
20260507082700 53 190 0.0 3.0 0.00 0.00 0.00 78 1025.9
20260507082156 53 179 0.0 0.0 0.00 0.00 0.00 79 1025.8
20260507081653 53 152 0.0 0.0 0.00 0.00 0.00 79 1025.7
20260507081149 53 208 0.0 0.0 0.00 0.00 0.00 79 1025.6
20260507080646 53 216 0.0 0.0 0.00 0.00 0.00 79 1025.6
20260507080142 53 215 0.0 0.0 0.00 0.00 0.00 79 1025.7
20260507075637 53 226 0.0 0.0 0.00 0.00 0.00 79 1025.7
20260507075134 53 244 0.0 0.0 0.00 0.00 0.00 79 1025.8
20260507074631 53 152 0.0 0.0 0.00 0.00 0.00 79 1025.8
20260507074129 53 206 0.0 0.0 0.00 0.00 0.00 79 1025.7
20260507073625 53 204 0.0 0.0 0.00 0.00 0.00 79 1025.7
20260507073121 53 179 0.0 3.0 0.00 0.00 0.00 79 1025.7
20260507072619 53 197 0.0 0.0 0.00 0.00 0.00 78 1025.7
20260507072116 53 171 0.0 3.0 0.00 0.00 0.00 78 1025.6
20260507071613 53 191 0.0 3.0 0.00 0.00 0.00 78 1025.7
20260507071110 54 160 0.0 0.0 0.00 0.00 0.00 77 1025.6
20260507070607 54 245 0.0 0.0 0.00 0.00 0.00 77 1025.5
20260507070104 54 202 0.0 0.0 0.00 0.00 0.00 77 1025.7
20260507065600 54 219 0.0 0.0 0.00 0.00 0.00 78 1025.6
20260507065057 54 172 0.0 0.0 0.00 0.00 0.00 78 1025.7
20260507064555 54 211 0.0 0.0 0.00 0.00 0.00 77 1025.7
20260507064054 54 200 0.0 0.0 0.00 0.00 0.00 77 1025.8
20260507063550 54 219 0.0 3.0 0.00 0.00 0.00 77 1025.7
20260507063048 54 209 0.0 0.0 0.00 0.00 0.00 77 1025.7
20260507062544 54 219 0.0 0.0 0.00 0.00 0.00 77 1025.6
20260507062042 54 225 0.0 0.0 0.00 0.00 0.00 77 1025.8
20260507061539 54 243 0.0 0.0 0.00 0.00 0.00 77 1025.8
20260507061037 54 149 0.0 0.0 0.00 0.00 0.00 77 1025.6
20260507060535 54 229 0.0 0.0 0.00 0.00 0.00 77 1025.6
20260507060032 55 301 0.0 0.0 0.00 0.00 0.00 76 1025.6
20260507055531 55 222 0.0 0.0 0.00 0.00 0.00 76 1025.5
20260507055028 55 306 0.0 0.0 0.00 0.00 0.00 76 1025.8
20260507054524 55 259 0.0 0.0 0.00 0.00 0.00 76 1025.7
20260507054021 55 281 0.0 0.0 0.00 0.00 0.00 75 1025.7
20260507053519 55 246 0.0 0.0 0.00 0.00 0.00 75 1025.6
20260507053018 55 240 0.0 0.0 0.00 0.00 0.00 75 1025.7
20260507052515 55 298 1.0 3.0 0.00 0.00 0.00 74 1025.7
20260507052011 55 293 0.0 3.0 0.00 0.00 0.00 73 1025.6
20260507051509 55 233 0.0 3.0 0.00 0.00 0.00 73 1025.7
20260507051006 56 284 0.0 0.0 0.00 0.00 0.00 72 1025.8
20260507050502 56 301 3.0 5.0 0.00 0.00 0.00 72 1025.8
20260507045959 56 275 1.0 3.0 0.00 0.00 0.00 72 1025.7
20260507045455 56 252 0.0 3.0 0.00 0.00 0.00 72 1025.8
20260507044953 56 234 0.0 0.0 0.00 0.00 0.00 71 1025.7
20260507044450 56 211 0.0 0.0 0.00 0.00 0.00 71 1025.8
20260507043946 56 278 1.0 5.0 0.00 0.00 0.00 71 1025.8
20260507043442 56 247 0.0 0.0 0.00 0.00 0.00 71 1025.6
20260507042938 56 259 0.0 3.0 0.00 0.00 0.00 71 1025.7
20260507042436 56 261 0.0 3.0 0.00 0.00 0.00 71 1025.6
20260507041931 56 180 0.0 0.0 0.00 0.00 0.00 71 1025.7
20260507041428 56 237 0.0 0.0 0.00 0.00 0.00 71 1025.9
20260507040926 56 235 0.0 0.0 0.00 0.00 0.00 71 1025.5
20260507040421 57 205 0.0 0.0 0.00 0.00 0.00 70 1025.6
20260507035917 57 158 0.0 5.0 0.00 0.00 0.00 70 1025.6
20260507035414 57 126 0.0 5.0 0.00 0.00 0.00 70 1025.5
20260507034911 57 254 1.0 3.0 0.00 0.00 0.00 70 1025.5
20260507034407 57 203 0.0 0.0 0.00 0.00 0.00 70 1025.5
20260507033905 57 226 0.0 0.0 0.00 0.00 0.00 70 1025.5
20260507033403 57 215 0.0 0.0 0.00 0.00 0.00 69 1025.2
20260507032900 57 226 0.0 0.0 0.00 0.00 0.00 69 1025.4
20260507032357 57 322 0.0 7.0 0.00 0.00 0.00 69 1025.2
20260507031853 57 230 0.0 0.0 0.00 0.00 0.00 69 1025.2
20260507031350 57 207 0.0 0.0 0.00 0.00 0.00 69 1025.2
20260507030846 57 208 0.0 0.0 0.00 0.00 0.00 69 1025.1
20260507030344 57 221 0.0 0.0 0.00 0.00 0.00 69 1025.1
20260507025840 57 237 0.0 0.0 0.00 0.00 0.00 69 1025.1
20260507025338 57 222 0.0 0.0 0.00 0.00 0.00 69 1025.2
20260507024836 57 236 0.0 0.0 0.00 0.00 0.00 68 1025.2
20260507024333 58 206 0.0 0.0 0.00 0.00 0.00 68 1025.1
20260507023828 58 208 0.0 0.0 0.00 0.00 0.00 68 1025.1
20260507023325 58 209 0.0 0.0 0.00 0.00 0.00 68 1025.1
20260507022823 58 249 0.0 0.0 0.00 0.00 0.00 68 1025.1
20260507022319 58 233 0.0 3.0 0.00 0.00 0.00 68 1024.8
20260507021815 58 239 0.0 0.0 0.00 0.00 0.00 68 1024.9
20260507021311 58 208 0.0 0.0 0.00 0.00 0.00 68 1024.9
20260507020809 58 229 0.0 0.0 0.00 0.00 0.00 68 1025.0
20260507020305 59 269 0.0 0.0 0.00 0.00 0.00 68 1025.0
20260507015803 59 201 0.0 0.0 0.00 0.00 0.00 68 1024.8
20260507015300 59 232 0.0 0.0 0.00 0.00 0.00 67 1025.0
20260507014757 59 209 0.0 0.0 0.00 0.00 0.00 68 1025.0